EW8119 Weather Reports


Display with metric or nautical units.
time (UTC)temp
F
wind
direction
speed
MPH
gust
MPH
rain 1hr
in
rain 24hr
in
rain mn
in
humidity
%
barometer
mb
20260505101809 43 51 6.0 9.0 0.00 0.00 0.00 89 1011.5
20260505101304 43 164 3.0 11.0 0.00 0.00 0.00 89 1011.4
20260505100801 43 75 7.0 9.0 0.00 0.00 0.00 89 1011.3
20260505100257 44 38 4.0 12.0 0.00 0.00 0.00 89 1011.0
20260505095753 44 73 4.0 10.0 0.00 0.00 0.00 89 1010.9
20260505095251 44 46 6.0 11.0 0.00 0.00 0.00 89 1011.3
20260505094746 44 35 6.0 11.0 0.00 0.00 0.00 89 1011.3
20260505094243 45 29 3.0 7.0 0.00 0.00 0.00 88 1011.3
20260505093739 45 37 3.0 11.0 0.00 0.00 0.00 87 1011.0
20260505093237 45 36 3.0 9.0 0.00 0.00 0.00 86 1011.3
20260505092733 46 40 4.0 5.0 0.00 0.00 0.00 85 1010.9
20260505092232 46 66 3.0 4.0 0.00 0.00 0.00 84 1011.1
20260505091729 46 45 2.0 4.0 0.00 0.00 0.00 84 1011.0
20260505091228 46 75 2.0 5.0 0.00 0.00 0.00 85 1010.9
20260505090725 47 64 4.0 4.0 0.00 0.00 0.00 84 1011.0
20260505090223 47 75 5.0 6.0 0.00 0.00 0.00 82 1011.0
20260505085719 47 69 4.0 6.0 0.00 0.00 0.00 81 1010.8
20260505085218 47 45 3.0 4.0 0.00 0.00 0.00 81 1011.0
20260505084715 47 94 3.0 5.0 0.00 0.00 0.00 81 1011.4
20260505084214 47 5 6.0 6.0 0.00 0.00 0.00 80 1011.3
20260505083710 47 349 0.0 5.0 0.00 0.00 0.00 80 1011.3
20260505083207 47 25 4.0 6.0 0.00 0.00 0.00 79 1011.3
20260505082703 47 29 3.0 7.0 0.00 0.00 0.00 83 1011.4
20260505082200 47 60 0.0 3.0 0.00 0.00 0.00 87 1011.6
20260505081656 47 36 2.0 3.0 0.00 0.00 0.00 87 1011.5
20260505081154 47 15 0.0 0.0 0.00 0.00 0.00 88 1011.5
20260505080651 47 53 2.0 3.0 0.00 0.00 0.00 87 1011.5
20260505080146 48 71 2.0 3.0 0.00 0.00 0.00 86 1011.0
20260505075642 48 77 3.0 3.0 0.00 0.00 0.00 86 1011.4
20260505075139 48 128 4.0 4.0 0.00 0.00 0.00 86 1011.3
20260505074636 48 127 2.0 5.0 0.00 0.00 0.00 85 1011.3
20260505074133 48 130 4.0 4.0 0.00 0.00 0.00 85 1011.4
20260505073631 48 146 3.0 9.0 0.00 0.00 0.00 86 1011.1
20260505073129 48 183 2.0 3.0 0.00 0.00 0.00 90 1011.5
20260505072624 48 162 2.0 4.0 0.00 0.00 0.00 92 1011.5
20260505072121 48 105 0.0 2.0 0.00 0.00 0.00 92 1011.5
20260505071617 48 151 1.0 2.0 0.00 0.00 0.00 92 1011.5
20260505071115 48 200 0.0 2.0 0.00 0.00 0.00 93 1011.8
20260505070612 48 151 0.0 2.0 0.00 0.00 0.00 93 1011.6
20260505070108 48 120 0.0 2.0 0.00 0.00 0.00 93 1011.5
20260505065604 48 165 0.0 1.0 0.00 0.00 0.00 93 1011.8
20260505065101 48 172 0.0 0.0 0.00 0.00 0.00 93 1011.8
20260505064557 48 151 2.0 2.0 0.00 0.00 0.00 93 1011.7
20260505064056 48 151 1.0 2.0 0.00 0.00 0.00 93 1011.5
20260505063553 48 151 0.0 2.0 0.00 0.00 0.00 93 1011.7
20260505063049 48 145 0.0 2.0 0.00 0.00 0.00 92 1011.8
20260505062545 48 174 0.0 3.0 0.00 0.00 0.00 92 1011.7
20260505062043 48 96 0.0 2.0 0.00 0.00 0.00 92 1011.5
20260505061540 48 123 0.0 2.0 0.00 0.00 0.00 92 1011.7
20260505061038 48 188 0.0 1.0 0.00 0.00 0.00 92 1012.1
20260505060535 48 157 1.0 1.0 0.00 0.00 0.00 92 1011.8
20260505060032 48 145 0.0 2.0 0.00 0.00 0.00 92 1011.8
20260505055527 48 156 2.0 3.0 0.00 0.07 0.07 92 1012.0
20260505055024 48 157 1.0 2.0 0.00 0.07 0.07 92 1012.0
20260505054521 48 154 1.0 3.0 0.00 0.07 0.07 92 1011.7
20260505054020 48 154 0.0 2.0 0.00 0.07 0.07 92 1011.4
20260505053516 48 151 0.0 2.0 0.00 0.07 0.07 92 1011.7
20260505053013 48 173 1.0 2.0 0.00 0.07 0.07 92 1011.8
20260505052510 48 151 0.0 3.0 0.00 0.07 0.07 91 1011.8
20260505052008 48 185 1.0 3.0 0.00 0.07 0.07 91 1011.7
20260505051504 48 180 1.0 2.0 0.00 0.07 0.07 91 1011.8
20260505051003 48 173 2.0 4.0 0.02 0.07 0.07 91 1011.7
20260505050500 48 198 2.0 6.0 0.05 0.07 0.07 91 1012.0
20260505041428 48 265 3.0 5.0 0.00 0.06 0.06 92 1012.3
20260505040925 47 273 7.0 9.0 0.02 0.06 0.06 91 1012.1
20260505040422 47 273 13.0 13.0 0.09 0.06 0.06 91 1012.2
20260505035919 48 278 8.0 13.0 0.17 0.05 0.05 90 1012.1
20260505035415 48 247 6.0 16.0 0.12 0.04 0.04 88 1012.1
20260505034912 48 255 4.0 15.0 0.02 0.02 0.02 84 1012.2
20260505034409 51 233 18.0 19.0 0.02 0.02 0.02 78 1012.0
20260505033906 52 190 6.0 11.0 0.00 0.02 0.02 71 1011.8
20260505033403 52 264 3.0 10.0 0.00 0.02 0.02 67 1011.7
20260505032901 53 334 7.0 8.0 0.00 0.02 0.02 64 1011.5
20260505032357 53 350 3.0 11.0 0.00 0.02 0.02 64 1011.4
20260505031854 53 23 3.0 7.0 0.00 0.02 0.02 64 1011.3
20260505031351 53 23 2.0 4.0 0.00 0.02 0.02 64 1011.0
20260505030848 53 71 2.0 3.0 0.00 0.02 0.02 63 1011.3
20260505030344 53 327 2.0 6.0 0.00 0.02 0.02 62 1011.1
20260505025839 53 333 8.0 8.0 0.00 0.02 0.02 64 1010.8
20260505025337 53 339 3.0 9.0 0.00 0.02 0.02 63 1010.7
20260505024836 53 323 3.0 6.0 0.00 0.02 0.02 63 1010.8
20260505024333 53 20 1.0 7.0 0.00 0.02 0.02 62 1010.5
20260505023830 53 39 7.0 14.0 0.00 0.02 0.02 61 1010.4
20260505023327 53 16 7.0 9.0 0.00 0.02 0.02 60 1010.4
20260505022824 54 71 4.0 11.0 0.00 0.02 0.02 60 1010.4
20260505022321 54 21 10.0 10.0 0.00 0.02 0.02 58 1010.5
20260505021819 54 38 4.0 7.0 0.00 0.02 0.02 59 1010.4
20260505021315 54 37 6.0 7.0 0.00 0.02 0.02 59 1010.4
20260505020811 54 36 5.0 8.0 0.00 0.02 0.02 59 1010.3
20260505020307 54 57 4.0 9.0 0.00 0.02 0.02 58 1010.7
20260505015804 54 16 5.0 8.0 0.00 0.02 0.02 59 1010.1
20260505015301 53 47 3.0 6.0 0.00 0.02 0.02 62 1010.2
20260505014758 53 56 2.0 4.0 0.00 0.02 0.02 65 1010.2
20260505014255 53 42 3.0 4.0 0.00 0.02 0.02 62 1010.3
20260505013751 53 40 2.0 2.0 0.00 0.02 0.02 62 1009.7
20260505013249 54 23 0.0 2.0 0.00 0.02 0.02 64 1009.8
20260505012747 54 90 0.0 2.0 0.00 0.02 0.02 61 1010.1
20260505012244 54 162 3.0 4.0 0.02 0.02 0.02 62 1010.1
20260505011739 55 178 3.0 7.0 0.05 0.02 0.02 63 1010.2
20260505011237 56 279 0.0 1.0 0.02 0.01 0.01 55 1010.0
20260505010732 56 90 1.0 4.0 0.02 0.01 0.01 48 1010.0
20260505010229 56 285 1.0 14.0 0.02 0.01 0.01 48 1010.3
20260505005725 57 225 7.0 7.0 0.02 0.00 0.00 54 1010.1
20260505005222 57 228 7.0 15.0 0.02 0.00 0.00 47 1010.3
20260505004719 57 78 3.0 5.0 0.00 0.00 0.00 47 1010.3
20260505004216 58 247 4.0 13.0 0.00 0.00 0.00 47 1010.4
20260505003713 59 350 4.0 12.0 0.00 0.00 0.00 41 1010.1
20260505003211 60 50 5.0 6.0 0.00 0.00 0.00 39 1009.6
20260505002707 60 351 4.0 12.0 0.00 0.00 0.00 38 1009.8
20260505002205 60 303 3.0 10.0 0.00 0.00 0.00 37 1009.6
20260505001702 60 50 3.0 10.0 0.00 0.00 0.00 37 1009.5
20260505001159 61 23 5.0 17.0 0.00 0.00 0.00 36 1009.4
20260505000656 61 7 8.0 17.0 0.00 0.00 0.00 35 1009.1
20260505000154 61 19 7.0 9.0 0.00 0.00 0.00 36 1009.4
20260504235650 61 0 6.0 9.0 0.00 0.00 0.00 36 1009.3
20260504235146 62 348 8.0 11.0 0.00 0.00 0.00 35 1009.3
20260504234644 62 44 8.0 18.0 0.00 0.00 0.00 35 1009.1
20260504234141 63 357 2.0 7.0 0.00 0.00 0.00 33 1009.0
20260504233637 63 49 3.0 10.0 0.00 0.00 0.00 32 1009.0
20260504233133 63 40 6.0 16.0 0.00 0.00 0.00 32 1008.8
20260504232631 64 21 3.0 20.0 0.00 0.00 0.00 31 1008.8
20260504232128 64 335 6.0 10.0 0.00 0.00 0.00 31 1008.5
20260504231624 64 356 6.0 13.0 0.00 0.00 0.00 31 1008.9
20260504231120 64 320 4.0 7.0 0.00 0.00 0.00 31 1008.5
20260504230616 64 0 3.0 7.0 0.00 0.00 0.00 31 1008.5
20260504230116 64 11 5.0 11.0 0.00 0.00 0.00 32 1008.5
20260504225613 64 6 7.0 13.0 0.00 0.00 0.00 31 1008.7
20260504225109 64 356 5.0 15.0 0.00 0.00 0.00 31 1008.4
20260504224606 64 18 8.0 15.0 0.00 0.00 0.00 31 1008.5
20260504224103 64 42 6.0 8.0 0.00 0.00 0.00 31 1008.5
20260504223600 64 32 12.0 14.0 0.00 0.00 0.00 31 1008.5
20260504223056 63 40 13.0 21.0 0.00 0.00 0.00 32 1008.2
20260504222553 63 17 10.0 18.0 0.00 0.00 0.00 31 1008.2
20260504222050 63 21 20.0 32.0 0.00 0.00 0.00 31 1008.0
20260504221548 64 6 12.0 13.0 0.00 0.00 0.00 30 1008.2
20260504221044 64 344 4.0 15.0 0.00 0.00 0.00 30 1008.1
20260504220541 64 13 9.0 15.0 0.00 0.00 0.00 29 1008.0
20260504220038 64 12 8.0 13.0 0.00 0.00 0.00 30 1007.6
20260504215534 64 322 8.0 13.0 0.00 0.00 0.00 30 1007.6
20260504215032 64 58 13.0 18.0 0.00 0.00 0.00 30 1007.4
20260504214527 67 21 9.0 31.0 0.00 0.00 0.00 27 1007.4
20260504214024 67 10 5.0 7.0 0.00 0.00 0.00 24 1007.8
20260504213521 67 10 4.0 12.0 0.00 0.00 0.00 23 1007.6
20260504213018 67 9 5.0 15.0 0.00 0.00 0.00 24 1007.7
20260504212513 68 0 1.0 14.0 0.00 0.00 0.00 23 1007.8
20260504212011 68 2 3.0 9.0 0.00 0.00 0.00 23 1008.0
20260504211508 68 261 3.0 8.0 0.00 0.00 0.00 22 1007.7
20260504211005 68 0 2.0 9.0 0.00 0.00 0.00 24 1008.1
20260504210502 68 285 3.0 7.0 0.00 0.00 0.00 22 1008.1
20260504205958 68 30 8.0 11.0 0.00 0.00 0.00 23 1008.1
20260504205456 67 21 7.0 10.0 0.00 0.00 0.00 24 1008.1
20260504204954 67 307 5.0 13.0 0.00 0.00 0.00 24 1008.2
20260504204452 67 0 0.0 9.0 0.00 0.00 0.00 23 1008.1
20260504203951 67 349 0.0 10.0 0.00 0.00 0.00 23 1008.3
20260504203449 67 318 3.0 19.0 0.00 0.00 0.00 23 1008.0
20260504202944 68 0 3.0 6.0 0.00 0.00 0.00 24 1008.2
20260504202441 68 287 2.0 10.0 0.00 0.00 0.00 23 1008.2
20260504201938 67 281 9.0 14.0 0.00 0.00 0.00 24 1008.1
20260504201435 66 229 9.0 16.0 0.00 0.00 0.00 26 1008.4
20260504200933 67 275 0.0 12.0 0.00 0.00 0.00 25 1008.2
20260504200429 67 277 9.0 13.0 0.00 0.00 0.00 24 1008.4
20260504195926 67 233 2.0 16.0 0.00 0.00 0.00 24 1008.5
20260504195422 67 260 3.0 15.0 0.00 0.00 0.00 23 1008.4
20260504194919 67 266 4.0 8.0 0.00 0.00 0.00 23 1008.7
20260504194414 67 8 2.0 5.0 0.00 0.00 0.00 23 1008.5
20260504193911 67 190 2.0 10.0 0.00 0.00 0.00 22 1008.8
20260504193408 67 120 2.0 16.0 0.00 0.00 0.00 24 1008.5
20260504192907 68 235 16.0 20.0 0.00 0.00 0.00 22 1008.7
20260504192404 68 281 3.0 10.0 0.00 0.00 0.00 22 1008.5
20260504191902 69 217 9.0 11.0 0.00 0.00 0.00 19 1008.3
20260504191400 69 290 2.0 7.0 0.00 0.00 0.00 18 1008.5
20260504190855 69 349 3.0 6.0 0.00 0.00 0.00 19 1008.3
20260504190351 69 255 2.0 10.0 0.00 0.00 0.00 19 1008.2
20260504185848 69 266 2.0 3.0 0.00 0.00 0.00 19 1008.3
20260504185345 69 17 4.0 5.0 0.00 0.00 0.00 19 1008.2
20260504184841 70 2 3.0 10.0 0.00 0.00 0.00 20 1008.3
20260504184337 70 344 4.0 9.0 0.00 0.00 0.00 20 1008.3
20260504183833 70 237 7.0 7.0 0.00 0.00 0.00 20 1008.4
20260504183331 70 338 7.0 13.0 0.00 0.00 0.00 21 1008.3
20260504182828 71 317 4.0 12.0 0.00 0.00 0.00 20 1008.5
20260504182325 71 259 4.0 13.0 0.00 0.00 0.00 21 1008.2
20260504181822 72 340 8.0 14.0 0.00 0.00 0.00 20 1008.7
20260504181320 72 22 7.0 11.0 0.00 0.00 0.00 20 1008.4
20260504180819 72 261 5.0 10.0 0.00 0.00 0.00 21 1008.3
20260504180316 72 248 10.0 13.0 0.00 0.00 0.00 20 1008.5
20260504175814 71 340 5.0 15.0 0.00 0.00 0.00 19 1008.7
20260504175311 72 11 3.0 10.0 0.00 0.00 0.00 21 1008.5
20260504174809 73 335 3.0 7.0 0.00 0.00 0.00 20 1008.9
20260504174306 71 352 5.0 11.0 0.00 0.00 0.00 21 1008.7
20260504173803 72 281 6.0 10.0 0.00 0.00 0.00 22 1008.9
20260504173259 71 334 6.0 18.0 0.00 0.00 0.00 21 1008.8
20260504172756 71 7 10.0 19.0 0.00 0.00 0.00 21 1009.1
20260504172253 72 335 7.0 8.0 0.00 0.00 0.00 21 1009.1
20260504171749 72 266 7.0 9.0 0.00 0.00 0.00 21 1009.3
20260504171246 71 268 5.0 11.0 0.00 0.00 0.00 21 1009.1
20260504170743 71 354 3.0 9.0 0.00 0.00 0.00 22 1009.1
20260504170240 70 274 7.0 12.0 0.00 0.00 0.00 21 1009.0
20260504160159 69 237 3.0 9.0 0.00 0.00 0.00 22 1009.5
20260504151127 63 237 5.0 11.0 0.00 0.00 0.00 24 1010.1
20260504150624 63 294 6.0 12.0 0.00 0.00 0.00 24 1010.2
20260504150121 63 255 7.0 11.0 0.00 0.00 0.00 24 1010.2
20260504141049 56 227 7.0 9.0 0.00 0.00 0.00 33 1010.1
20260504140546 56 229 13.0 13.0 0.00 0.00 0.00 33 1010.2
20260504130510 51 159 2.0 3.0 0.00 0.00 0.00 41 1010.1
20260504110357 48 126 1.0 4.0 0.00 0.00 0.00 48 1009.8